Location: Oberwangen
(47.4286°N, 8.9679°E)
Time: 08:26:03
(UTC+00:00)

Cosmos 1447 Rocket - Pass Details

Date: 30 October 2021
Orbit: 953 x 996 km, 82.9° (Epoch: 27 November)

Event Time Altitude Azimuth Distance (km) Brightness Sun altitude
Rises 19:36:31 0° 332° (NNW) 3,642 8.1 -35.1°
Reaches altitude 10° 19:41:55 10° 293° (WNW) 2,691 7.6 -36.0°
Maximum altitude 19:42:38 10° 286° (WNW) 2,675 7.6 -36.1°
Drops below altitude 10° 19:43:22 10° 279° (W) 2,690 7.5 -36.2°
Sets 19:48:48 0° 239° (WSW) 3,637 7.9 -37.1°
